Overview Statistics Trail Chart Weather Telemetry Raw packets
 

This is the latest recevied weather packets stored in our database for station/object N5CSU. If no packets are shown the sender has not sent any weather packets the latest 10 day(s).

<< 58 59 60 61 62 63 64 >>
Time Temp. Humidity Pressure Rain* Wind** Luminosity Snow
1788220828 36.11° C 34% 1013.6 hPa 0 mm - 5 W/m² -
1788220538 36.11° C 34% 1013.6 hPa 0 mm - 6 W/m² -
1788220217 36.67° C 34% 1013.4 hPa 0 mm - 6 W/m² -
1788219911 36.67° C 34% 1013.6 hPa 0 mm - 6 W/m² -
1788219607 36.67° C 33% 1013.6 hPa 0 mm - 7 W/m² -
1788219301 36.67° C 33% 1013.5 hPa 0 mm - 7 W/m² -
1788218997 36.67° C 32% 1013.4 hPa 0 mm - 7 W/m² -
1788218692 36.67° C 33% 1013.4 hPa 0 mm - 8 W/m² -
1788218388 36.67° C 33% 1013.5 hPa 0 mm - 8 W/m² -
1788218079 37.22° C 33% 1013.3 hPa 0 mm - 9 W/m² -
1788217775 37.22° C 34% 1013.5 hPa 0 mm - 9 W/m² -
1788217475 37.22° C 33% 1013.5 hPa 0 mm - 9 W/m² -
1788217169 37.22° C 32% 1013.5 hPa 0 mm - 10 W/m² -
1788216865 37.22° C 33% 1013.6 hPa 0 mm - 18 W/m² -
1788216560 37.22° C 35% 1013.5 hPa 0 mm - 16 W/m² -
1788216254 37.78° C 33% 1013.8 hPa 0 mm - 14 W/m² -
1788215949 37.78° C 33% 1013.8 hPa 0 mm - 12 W/m² -
1788215644 37.78° C 34% 1013.7 hPa 0 mm - 13 W/m² -
1788215341 37.78° C 34% 1013.7 hPa 0 mm - 40 W/m² -
1788215036 38.33° C 34% 1013.8 hPa 0 mm - 64 W/m² -
1788214731 38.33° C 33% 1013.8 hPa 0 mm - 68 W/m² -
1788214427 37.78° C 34% 1013.8 hPa 0 mm - 19 W/m² -
1788214122 37.78° C 34% 1013.9 hPa 0 mm - 25 W/m² -
1788213818 37.78° C 34% 1014 hPa 0 mm - 156 W/m² -
1788213513 37.22° C 34% 1014.1 hPa 0 mm - 68 W/m² -

* Rain latest hour (hover to see other rain measurements)
** Current wind speed in m/s (hover to see current wind gust speed)